BAW291 EGLL-KIAD

Flight info

Callsign BAW291
Flight time N/A
Altitude 40000
Route EGLL/27L N0478F360 CPT3G CPT DCT DIDZA L9 OKSAW DCT BIBPE DCT BUCGO DCT FELCA DCT OFSOX DCT SLANY DCT MALOT/M083F380 DCT 53N020W 53N030W 52N040W 50N050W DCT ELSIR/N0490F380 DCT ALLEX/N0488F400 DCT KAYCC DCT KYLOH DCT BAF HYPER9 KIAD/19C
Aircraft B772/H-V/N

Departure

Time N/A
Airport London Heathrow Airport (EGLL)

Arrival

Time 2026-05-04 17:02
Airport Washington Dulles International Airport (KIAD)
Time Latitude Longitude Altitude Speed Heading
2026-05-04 15:34 44.46994 -66.87926 39613 ft 459 kts 237°
2026-05-04 15:34 44.42182 -66.99534 39609 ft 461 kts 243°
2026-05-04 15:35 44.39044 -67.12257 39622 ft 462 kts 251°
2026-05-04 15:36 44.36388 -67.25202 39608 ft 461 kts 251°
2026-05-04 15:36 44.34595 -67.33793 39623 ft 460 kts 251°
2026-05-04 15:37 44.32790 -67.42356 39635 ft 459 kts 251°
2026-05-04 15:37 44.30974 -67.50915 39635 ft 459 kts 251°
2026-05-04 15:38 44.29165 -67.59410 39641 ft 460 kts 251°
2026-05-04 15:38 44.27333 -67.67980 39636 ft 461 kts 251°
2026-05-04 15:39 44.25495 -67.76547 39637 ft 461 kts 251°
2026-05-04 15:40 44.22728 -67.89379 39671 ft 460 kts 251°
2026-05-04 15:40 44.20875 -67.97924 39665 ft 461 kts 251°
2026-05-04 15:41 44.19014 -68.06472 39655 ft 461 kts 251°
2026-05-04 15:41 44.17147 -68.15013 39668 ft 461 kts 251°
2026-05-04 15:42 44.15275 -68.23545 39674 ft 461 kts 251°
2026-05-04 15:42 44.13393 -68.32086 39673 ft 462 kts 251°
2026-05-04 15:43 44.11517 -68.40567 39692 ft 462 kts 251°
2026-05-04 15:43 44.09620 -68.49109 39682 ft 461 kts 251°
2026-05-04 15:44 44.07721 -68.57625 39691 ft 461 kts 251°
2026-05-04 15:44 44.05814 -68.66144 39698 ft 462 kts 251°
2026-05-04 15:45 44.03899 -68.74664 39693 ft 462 kts 251°
2026-05-04 15:45 44.01979 -68.83172 39697 ft 461 kts 251°
2026-05-04 15:46 44.00057 -68.91660 39710 ft 460 kts 251°
2026-05-04 15:46 43.98132 -69.00124 39704 ft 459 kts 251°
2026-05-04 15:47 43.96202 -69.08575 39701 ft 459 kts 251°
2026-05-04 15:47 43.94283 -69.16949 39705 ft 458 kts 251°
2026-05-04 15:48 43.92346 -69.25370 39711 ft 458 kts 251°
2026-05-04 15:48 43.89432 -69.37973 39750 ft 458 kts 251°
2026-05-04 15:49 43.87477 -69.46391 39749 ft 458 kts 251°
2026-05-04 15:49 43.85518 -69.54791 39747 ft 457 kts 251°
2026-05-04 15:50 43.83570 -69.63118 39752 ft 457 kts 251°
2026-05-04 15:50 43.81604 -69.71485 39748 ft 457 kts 251°
2026-05-04 15:51 43.79633 -69.79841 39749 ft 456 kts 251°
2026-05-04 15:51 43.77657 -69.88189 39758 ft 457 kts 251°
2026-05-04 15:52 43.75675 -69.96534 39752 ft 456 kts 251°
2026-05-04 15:52 43.73687 -70.04871 39750 ft 456 kts 251°
2026-05-04 15:53 43.71693 -70.13202 39753 ft 456 kts 251°
2026-05-04 15:53 43.69694 -70.21521 39749 ft 456 kts 250°
2026-05-04 15:54 43.67689 -70.29838 39771 ft 456 kts 251°
2026-05-04 15:54 43.65688 -70.38106 39768 ft 457 kts 251°
2026-05-04 15:55 43.63669 -70.46424 39770 ft 457 kts 251°
2026-05-04 15:55 43.61643 -70.54735 39774 ft 457 kts 250°
2026-05-04 15:56 43.59608 -70.63054 39785 ft 457 kts 250°
2026-05-04 15:56 43.57569 -70.71365 39787 ft 457 kts 250°
2026-05-04 15:57 43.55497 -70.79660 39786 ft 456 kts 246°
2026-05-04 15:57 43.53971 -70.83471 39795 ft 455 kts 234°
2026-05-04 15:57 43.51921 -70.86806 39785 ft 457 kts 226°
2026-05-04 15:58 43.46768 -70.91905 39787 ft 459 kts 211°
2026-05-04 15:58 43.41181 -70.96117 39782 ft 461 kts 211°
2026-05-04 15:59 43.35562 -71.00399 39773 ft 462 kts 212°
2026-05-04 15:59 43.29966 -71.04739 39790 ft 462 kts 212°
2026-05-04 16:00 43.24371 -71.09090 39779 ft 463 kts 212°
2026-05-04 16:00 43.18763 -71.13440 39785 ft 463 kts 212°
2026-05-04 16:01 43.13154 -71.17778 39791 ft 463 kts 212°
2026-05-04 16:01 43.07767 -71.22554 39799 ft 460 kts 221°
2026-05-04 16:02 43.03112 -71.28499 39792 ft 457 kts 230°
2026-05-04 16:03 42.97108 -71.38582 39794 ft 456 kts 232°
2026-05-04 16:03 42.93139 -71.45321 39796 ft 455 kts 232°
2026-05-04 16:04 42.89176 -71.51984 39782 ft 455 kts 232°
2026-05-04 16:04 42.83178 -71.62003 39831 ft 454 kts 232°
2026-05-04 16:05 42.79175 -71.68666 39815 ft 454 kts 232°
2026-05-04 16:06 42.73165 -71.78645 39821 ft 454 kts 232°
2026-05-04 16:07 42.65153 -71.91897 39843 ft 453 kts 232°
2026-05-04 16:08 42.57147 -72.05080 39836 ft 454 kts 232°
2026-05-04 16:09 42.47071 -72.21589 39853 ft 455 kts 232°
2026-05-04 16:10 42.38988 -72.34765 39855 ft 454 kts 232°
2026-05-04 16:11 42.30940 -72.47829 39843 ft 453 kts 232°
2026-05-04 16:12 42.18841 -72.67364 39843 ft 451 kts 232°
2026-05-04 16:13 42.11364 -72.80851 39861 ft 448 kts 237°
2026-05-04 16:14 42.04235 -72.94605 39886 ft 448 kts 237°
2026-05-04 16:16 41.95246 -73.11783 39890 ft 450 kts 237°
2026-05-04 16:17 41.86820 -73.27794 39915 ft 450 kts 237°
2026-05-04 16:18 41.78988 -73.42600 39905 ft 449 kts 237°
2026-05-04 16:19 41.70557 -73.58460 39891 ft 447 kts 237°
2026-05-04 16:20 41.61517 -73.75375 39881 ft 447 kts 237°
2026-05-04 16:22 41.52449 -73.92248 39883 ft 448 kts 237°
2026-05-04 16:23 41.41501 -74.12496 39919 ft 449 kts 236°
2026-05-04 16:25 41.30493 -74.32720 39912 ft 451 kts 236°
2026-05-04 16:26 41.17616 -74.56207 39925 ft 449 kts 236°
2026-05-04 16:28 41.08429 -74.72858 39922 ft 446 kts 236°
2026-05-04 16:29 40.95571 -74.96010 39931 ft 445 kts 236°
2026-05-04 16:31 40.86400 -75.12419 39947 ft 444 kts 236°
2026-05-04 16:32 40.75376 -75.32028 39943 ft 442 kts 236°
2026-05-04 16:33 40.68060 -75.44974 39955 ft 442 kts 236°
2026-05-04 16:34 40.62543 -75.54699 39954 ft 441 kts 236°
2026-05-04 16:35 40.51518 -75.74046 39972 ft 440 kts 236°
2026-05-04 16:36 40.46101 -75.83498 39333 ft 423 kts 237°
2026-05-04 16:37 40.42570 -75.89652 37964 ft 423 kts 237°
2026-05-04 16:37 40.40802 -75.92730 37177 ft 423 kts 237°
2026-05-04 16:37 40.37253 -75.98900 35601 ft 424 kts 238°
2026-05-04 16:38 40.33703 -76.05059 33838 ft 429 kts 238°
2026-05-04 16:39 40.28307 -76.14386 31439 ft 422 kts 238°
2026-05-04 16:39 40.24797 -76.20433 30197 ft 413 kts 238°
2026-05-04 16:40 40.21356 -76.26356 28770 ft 404 kts 238°
2026-05-04 16:40 40.17990 -76.32143 27420 ft 396 kts 238°
2026-05-04 16:41 40.14685 -76.37813 26116 ft 388 kts 238°
2026-05-04 16:41 40.09824 -76.46137 24201 ft 380 kts 238°
2026-05-04 16:42 40.05047 -76.54294 22283 ft 373 kts 238°
2026-05-04 16:43 40.01937 -76.59594 21112 ft 368 kts 238°
2026-05-04 16:43 39.98840 -76.64861 19964 ft 364 kts 238°
2026-05-04 16:43 39.97300 -76.67477 19419 ft 363 kts 238°
2026-05-04 16:44 39.91161 -76.77889 17130 ft 361 kts 237°
2026-05-04 16:45 39.88111 -76.83047 16032 ft 358 kts 237°
2026-05-04 16:46 39.83562 -76.90730 14444 ft 356 kts 237°
2026-05-04 16:46 39.80778 -76.96017 13345 ft 353 kts 244°
2026-05-04 16:47 39.78298 -77.01497 12241 ft 351 kts 243°
2026-05-04 16:47 39.75771 -77.06903 11174 ft 349 kts 242°
2026-05-04 16:48 39.72076 -77.14718 10401 ft 325 kts 243°
2026-05-04 16:48 39.70910 -77.17181 10257 ft 315 kts 243°
2026-05-04 16:49 39.68673 -77.21896 10000 ft 298 kts 242°
2026-05-04 16:49 39.65950 -77.25668 9762 ft 279 kts 226°
2026-05-04 16:50 39.63109 -77.28911 9622 ft 265 kts 227°
2026-05-04 16:50 39.60377 -77.32148 9293 ft 270 kts 227°
2026-05-04 16:51 39.57616 -77.35451 9005 ft 270 kts 227°
2026-05-04 16:51 39.56243 -77.37138 8724 ft 273 kts 229°
2026-05-04 16:51 39.53513 -77.40545 8231 ft 269 kts 229°
2026-05-04 16:52 39.50867 -77.43857 7773 ft 261 kts 229°
2026-05-04 16:52 39.49580 -77.45499 7559 ft 260 kts 229°
2026-05-04 16:53 39.46987 -77.48720 7137 ft 256 kts 229°
2026-05-04 16:53 39.43109 -77.53484 6531 ft 258 kts 219°
2026-05-04 16:54 39.41403 -77.54252 6341 ft 270 kts 184°
2026-05-04 16:55 39.34034 -77.52482 5476 ft 271 kts 172°
2026-05-04 16:55 39.30551 -77.51651 4719 ft 253 kts 173°
2026-05-04 16:56 39.26990 -77.50817 3705 ft 263 kts 173°
2026-05-04 16:56 39.22788 -77.47063 2366 ft 256 kts 133°
2026-05-04 16:57 39.21354 -77.45820 2095 ft 245 kts 166°
2026-05-04 16:57 39.18268 -77.45689 2017 ft 207 kts 184°
2026-05-04 16:58 39.14196 -77.45678 2037 ft 188 kts 184°
2026-05-04 16:58 39.12910 -77.45695 2023 ft 180 kts 186°
2026-05-04 16:59 39.10479 -77.45734 2008 ft 171 kts 186°
2026-05-04 17:00 39.05742 -77.45809 2030 ft 169 kts 185°
2026-05-04 17:00 39.02305 -77.45854 1372 ft 152 kts 184°
2026-05-04 17:01 39.00216 -77.45888 932 ft 151 kts 184°
2026-05-04 17:01 38.98138 -77.45915 579 ft 151 kts 184°
2026-05-04 17:02 38.96445 -77.45937 303 ft 133 kts 181°
2026-05-04 17:02 38.95137 -77.45959 302 ft 49 kts 178°
2026-05-04 17:03 38.94932 -77.45858 301 ft 14 kts 152°
2026-05-04 17:03 38.94870 -77.45814 300 ft 17 kts 149°
2026-05-04 17:03 38.94804 -77.45765 299 ft 0 kts 144°
2026-05-04 17:04 38.94783 -77.45744 298 ft 7 kts 142°
2026-05-04 17:04 38.94763 -77.45706 302 ft 4 kts 103°
2026-05-04 17:05 38.94760 -77.45654 303 ft 9 kts 93°
2026-05-04 17:05 38.94736 -77.45459 302 ft 8 kts 91°
2026-05-04 17:06 38.94734 -77.45283 303 ft 9 kts 91°
2026-05-04 17:06 38.94732 -77.45184 304 ft 11 kts 91°
2026-05-04 17:07 38.94731 -77.44997 306 ft 11 kts 90°
2026-05-04 17:07 38.94731 -77.44927 306 ft 9 kts 91°
2026-05-04 17:07 38.94734 -77.44858 306 ft 1 kts 63°
2026-05-04 17:07 38.94754 -77.44846 309 ft 6 kts 17°
2026-05-04 17:08 38.94772 -77.44843 308 ft 1 kts 355°
2026-05-04 17:08 38.94795 -77.44852 307 ft 2 kts 348°
2026-05-04 17:08 38.94802 -77.44854 308 ft 1 kts 351°
2026-05-04 17:09 38.94804 -77.44854 308 ft 0 kts 352°